{"data":{"norad_id":65550,"epoch":"2026-05-25T00:52:18.434208Z","epoch_age_seconds":61986,"freshness":"FRESH","line1":"1 65550U 25201A   26145.03632447  .00001224  00000+0  17218-3 0  9998","line2":"2 65550  49.9905 147.0076 0003860 314.5718  45.4905 14.84081888 38367","mean_motion":14.84081888,"eccentricity":0.000386,"inclination_deg":49.9905,"raan_deg":147.0076,"arg_perigee_deg":314.5718,"mean_anomaly_deg":45.4905,"bstar":0.00017218,"rev_number":3836,"period_min":97.02968627564,"perigee_km":613.76922095991,"apogee_km":619.16905689917,"semimajor_km":6994.6061389295,"source":"CELESTRAK","updated_at":"2026-05-25T13:38:05.512626Z"}}